Location: Celina Division
(33.3022°N, 96.7580°W)
Time: 01:07:45
(UTC+00:00)

X-37B - Pass Details

Date: 06 December 2022
Orbit: 277 x 277 km, 45.0° (Epoch: 01 November)

Event Time Altitude Azimuth Distance (km) Brightness Sun altitude
Rises 00:57:54 0° 250° (WSW) 1,903 5.7 -20.1°
Reaches altitude 10° 00:59:52 10° 259° (WSW) 1,094 4.1 -20.5°
Enters shadow 01:01:14 25° 280° (W) 602 2.2 -20.8°
